Flag for U.S.A. Weather past 2 weeks in Pasadena, California, U.S.A.

Now
68 °F

Sunny.


Feels Like: 68 °F
Forecast: 54 / 78 °F
Wind: No wind

Location: Burbank-Glendale-Pasadena Airport


UV Index: 7 (High)

Visibility: 10 mi


Pressure: 29.96 "Hg

Humidity: 35%

Dew point: 39 °F

Location of PasadenaLocation

Historic Weather in Pasadena

°F

Pasadena temperature yesterday

Maximum temperature yesterday: 72 °F (at 12:53 PM)
Minimum temperature yesterday: 52 °F (at 5:53 AM)
Average temperature yesterday: 63 °F

Past Weeks' High & Low Weather Summary

 TemperatureHumidityPressure
High91 °F (Apr 9, 2:53 PM)90% (Apr 18, 6:53 AM)30.03 "Hg (Apr 18, 6:53 AM)
Low52 °F (Apr 14, 4:53 AM)5% (Apr 9, 12:53 PM)29.74 "Hg (Apr 16, 4:53 PM)
Average65 °F55%29.91 "Hg
* Reported Apr 9 8:53 AM — Apr 24 8:53 AM, Pasadena, Weather by CustomWeather, © 2014

Note: Actual official high and low records may vary slightly from our data, if they occured in-between our weather recording intervals... More about our weather records

Advertising

Historic Weather Conditions — Data for Previous 24 hours

 ConditionsComfort  
Time TempWeatherWind HumidityBarometerVisibility
8:53 AM
Apr 24
63 °FSunny.No wind45%29.96 "Hg10 mi
7:53 AM60 °FSunny.No wind47%29.96 "Hg10 mi
6:53 AM56 °FClear.No wind53%29.94 "Hg10 mi
5:53 AM54 °FClear.No wind51%29.92 "Hg10 mi
4:53 AM54 °FClear.No wind49%29.90 "Hg10 mi
3:53 AM54 °FClear.No wind53%29.90 "Hg10 mi
2:53 AM55 °FClear.No wind53%29.90 "Hg10 mi
1:53 AM57 °FClear.No wind47%29.90 "Hg10 mi
12:53 AM59 °FClear.No wind58%29.91 "Hg10 mi
11:53 PM
Apr 23
61 °FClear.No wind54%29.91 "Hg10 mi
10:53 PM62 °FClear.No wind56%29.91 "Hg10 mi
9:53 PM64 °FClear.5 mph49%29.91 "Hg10 mi
8:53 PM65 °FClear.3 mph39%29.90 "Hg10 mi
7:53 PM66 °FSunny.3 mph36%29.88 "Hg10 mi
6:53 PM68 °FSunny.7 mph28%29.87 "Hg10 mi
5:53 PM70 °FSunny.8 mph27%29.87 "Hg10 mi
4:53 PM70 °FSunny.9 mph27%29.87 "Hg10 mi
3:53 PM72 °FSunny.9 mph26%29.87 "Hg10 mi
2:53 PM71 °FSunny.10 mph30%29.88 "Hg10 mi
1:53 PM70 °FSunny.8 mph35%29.90 "Hg10 mi
12:53 PM72 °FSunny.10 mph33%29.90 "Hg10 mi
11:53 AM70 °FSunny.6 mph30%29.92 "Hg10 mi
10:53 AM66 °FSunny.6 mph33%29.93 "Hg10 mi
Weather by CustomWeather, © 2014

See weather overview